Location: Gandikunta
(16.3784°N, 80.8378°E)
Time: 06:08:26
(UTC+00:00)

Cosmos 2242 Rocket - Pass Details

Date: 19 May 2025
Orbit: 613 x 647 km, 82.5° (Epoch: 18 June)

Event Time Altitude Azimuth Distance (km) Brightness Sun altitude
Exits shadow 22:37:13 46° 249° (WSW) 860 3.8 -19.9°
Maximum altitude 22:37:48 50° 275° (W) 823 3.8 -19.8°
Drops below altitude 10° 22:42:12 10° 351° (N) 2,041 6.4 -18.9°
Sets 22:44:31 0° 357° (N) 2,952 7.4 -18.4°
